Location: La Silve
(44.2414°N, 5.8889°E)
Time: 03:22:53
(UTC+00:00)

SKYMED 2 - Pass Details

Date: 01 December 2020
Orbit: 621 x 623 km, 97.9° (Epoch: 24 January)

Event Time Altitude Azimuth Distance (km) Brightness Sun altitude
Exits shadow 18:13:11 17° 358° (N) 1,569 5.5 -23.4°
Maximum altitude 18:16:17 51° 288° (WNW) 788 4.3 -24.0°
Drops below altitude 10° 18:20:29 10° 213° (SSW) 1,988 6.6 -24.7°
Sets 18:22:42 0° 208° (SSW) 2,890 7.5 -25.1°
